Regional Weather Roundup
Issued by NWS

Home | Current Version | Previous Version | Graphics & Text | Print | Product List | Glossary Off
Versions: 1 2 3 4 5 6 7 8 9 10 11 12 13 14 15 16 17 18 19 20 21 22 23 24 25 26 27 28 29 30 31 32 33 34 35 36 37 38 39 40 41 42 43 44 45 46 47 48 49

000
ASUS45 KBOU 051107
RWRCO

WEATHER ROUNDUP FOR COLORADO
NATIONAL WEATHER SERVICE DENVER/BOULDER CO
500 AM MDT SAT SEP 05 2015

NOTE: "FAIR" INDICATES FEW OR NO CLOUDS BELOW 12000 FEET WITH NO
SIGNIFICANT WEATHER AND/OR OBSTRUCTIONS TO VISIBILITY.

COZ001>005-013-030-031-051200-
...NORTHWEST COLORADO...

CITY           SKY/WX    TMP DP  RH WIND       PRES   REMARKS
CRAIG          CLOUDY    52  45  77 E5        30.09S
HAYDEN         MOCLDY    52  41  66 N6        30.12R
MEEKER         LGT RAIN  59  45  59 E6        30.12R
MOUNT WERNER   NOT AVBL
STEAMBOAT SPGS MOCLDY    49  44  82 CALM      30.14R
WALDEN         CLOUDY    48  43  81 SE3       30.19R
$$

COZ006>008-011-051200-
...WEST CENTRAL VALLEYS...

CITY           SKY/WX    TMP DP  RH WIND       PRES   REMARKS
GRAND JUNCTION CLOUDY    57  52  83 SE20      30.07R
MONTROSE       CLOUDY    55  53  93 N6        30.17R
EAGLE          CLOUDY    55  50  82 NW6       30.20R
RIFLE          CLOUDY    56  53  90 SE3       30.12S
DELTA          RAIN      58  55  87 N7        30.13F
NUCLA          CLOUDY    54  52  94 CALM      30.18S
$$

COZ017>023-064>068-051200-
...SOUTHWEST COLORADO...

CITY           SKY/WX    TMP DP  RH WIND       PRES   REMARKS
DURANGO        CLOUDY    56  53  90 CALM      30.20S
CORTEZ         MOCLDY    56  54  93 CALM      30.14R
PAGOSA SPRINGS CLOUDY    54  54 100 CALM      30.27S
TELLURIDE      LGT RAIN  49  47  94 SE3       30.33S
WOLF CREEK PAS NOT AVBL
$$

COZ009-010-012-014-032>034-037-058>063-051200-
...CENTRAL COLORADO...

CITY           SKY/WX    TMP DP  RH WIND       PRES   REMARKS
ASPEN          CLOUDY    51  49  92 CALM      30.25R
BUENA VISTA    MOCLDY    48  46  91 W5        30.22S
COPPER MTN     CLOUDY    46  34  61 SW8       30.44S
BERTHOUD PASS  MOCLDY    36  27  69 NW17G26   30.46R
COTTONWOOD PAS MOCLDY    52  41  66 CALM      30.33R
GUNNISON       CLOUDY    52  48  87 CALM      30.28R
KREMMLING      PTCLDY    48  45  87 CALM      30.21R
LEADVILLE      MOCLDY    40  40 100 N6        30.32R
MONARCH PASS   LGT RAIN  37  36  93 W32G52    30.54F VSB<1/4
SALIDA         MOCLDY    60  49  65 SW7       30.27R
SUNLIGHT       CLOUDY    43  43 100 CALM      30.40S FOG
WILKERSON PASS FOG       41  41 100 SW8       30.40S VSB 1/2
$$

COZ069>075-051200-
...SAN LUIS VALLEY/SANGRE DE CRISTO MOUNTAINS...

CITY           SKY/WX    TMP DP  RH WIND       PRES   REMARKS
ALAMOSA        MOCLDY    51  48  89 CALM      30.23R
LA VETA PASS   CLOUDY    46  43  87 S15G24    30.33F
SAGUACHE       RAIN      52  50  93 CALM      30.26R
$$

COZ035-036-038>040-051200-
...NORTHERN COLORADO FRONT RANGE...

CITY           SKY/WX    TMP DP  RH WIND       PRES   REMARKS
DENVER INTL AP MOCLDY    63  48  58 SE3       29.96R
DMNS CITY PARK   N/A     65  50  57 SE7       29.97R
AURORA         MOCLDY    65  49  55 S8        29.98S
FRONT RANGE AP PTCLDY    63  46  55 S3        29.97S
ERIE MUNI ARPT CLOUDY    59  50  71 SW6       29.96R
BOULDER MUN AP CLOUDY    64  48  55 CALM      29.95S
CENTENNIAL     CLOUDY    68  48  48 SW10      29.99S
BROOMFIELD     CLOUDY    66  43  42 NW6       29.99R
FORT COLLINS   CLOUDY    64  50  59 E5        29.95S
LONGMONT       CLOUDY    64  52  65 CALM      29.96S
$$

COZ041-046-047-076>085-087-088-051200-
...PIKES PEAK/PALMER DIVIDE AND SOUTHERN FOOTHILLS...

CITY           SKY/WX    TMP DP  RH WIND       PRES   REMARKS
COLO. SPRINGS  MOCLDY    59  48  67 NE7       30.05R
A. F. ACADEMY  MOCLDY    61  46  58 VRB1      30.06R
ELLICOTT       PTCLDY   N/A N/A N/A S9        30.03S
FALCON         PTCLDY    55  47  73 NW3       30.09F
FORT CARSON    PTCLDY    59  50  70 NW3       30.02R
LIMON          CLEAR     58  49  72 S5        29.99R
MONUMENT HILL  MOCLDY    59  43  55 SW6       30.09S
TRINIDAD       MOCLDY    67  49  52 NW5       30.07R
$$

COZ042>045-048>051-090-091-051200-
...NORTHEAST COLORADO...

CITY           SKY/WX    TMP DP  RH WIND       PRES   REMARKS
GREELEY ARPT   MOCLDY    61  54  77 CALM      29.93S
AKRON          MOCLDY    66  49  54 SW10      29.90S
BURLINGTON     PTCLDY    65  49  56 S9        29.94S
WRAY           CLOUDY    74  50  43 S10       29.86F
STERLING       MOCLDY    63  59  88 CALM      29.85S
HOLYOKE        MOCLDY    70  54  56 S8        29.85S
FORT MORGAN    MOCLDY    61  50  67 W7        29.92R
$$

COZ086-089-092>099-051200-
...SOUTHEAST COLORADO...

CITY           SKY/WX    TMP DP  RH WIND       PRES   REMARKS
PUEBLO         PTCLDY    63  51  65 W5        29.96F
LA JUNTA       CLOUDY    70  50  49 S6        29.95S
LAMAR          CLOUDY    74  51  44 S9        29.91S
SPRINGFIELD      N/A     66  53  63 S9        30.00F
$$




USA.gov is the U.S. government's official web portal to all federal, state and local government web resources and services.